Weather History for Lewisburg, WV

Change the Weather History Date:

Wednesday, February 5, 2014

  Actual Average Record
Temperature  
Mean Temperature 34 °F 30 °F  
Max Temperature 46 °F 41 °F 72 °F (2008)
Min Temperature 22 °F 20 °F -10 °F (1996)
Degree Days  
Heating Degree Days 31    
Month to date heating degree days 149  
Since 1 July heating degree days 2459  
Cooling Degree Days 0    
Month to date cooling degree days 0  
Year to date cooling degree days 0  
Moisture  
Dew Point 29 °F    
Average Humidity 81    
Maximum Humidity 96    
Minimum Humidity 65    
Precipitation  
Precipitation 0.03 in 0.11 in 0.95 in (1960)
Month to date precipitation 1.14 0.53  
Year to date precipitation 2.08 3.68  
Snow  
Snow T in - - ()
Month to date snowfall T  
Since 1 July snowfall 16.9  
Snow Depth T in    
Sea Level Pressure  
Sea Level Pressure 29.89 in    
Wind  
Wind Speed 8 mph (NNW)    
Max Wind Speed 16 mph    
Max Gust Speed 26 mph    
Visibility 7 miles    
Events Rain , Snow    
T = Trace of Precipitation, MM = Missing Value Source: NWS Daily Summary

Daily Weather History Graph

Daily Weather History Graph

Search for Another Location

Airport:

Trip Planner

Search our weather history database for the weather conditions in past years. The results will help you decide how hot, cold, wet, or windy it might be!

Date:

Astronomy

Feb. 05, 2014 Rise Set
Actual Time 7:22 AM EST 5:49 PM EST
Civil Twilight 6:54 AM EST 6:17 PM EST
Nautical Twilight 6:23 AM EST 6:48 PM EST
Astronomical Twilight 5:52 AM EST 7:19 PM EST
Moon 10:43 AM EST (2/5) No Moon Set
Length of Visible Light 11h 22m
Length of Day
10h 27m
Waxing Crescent, 39% of the Moon is Illuminated
Feb 5
Waxing Crescent
Feb 6
First Quarter
Feb 14
Full
Feb 22
Last Quarter
Mar 1
New

Hourly Weather History & Observations

Time (EST) Temp. Windchill Dew Point Humidity Pressure Visibility Wind Dir Wind Speed Gust Speed Precip Events Conditions
12:15 AM 32.0 °F 27.5 °F 30.7 °F 95% 29.99 in 10.0 mi NE 4.6 mph - N/A   Overcast
12:35 AM 32.0 °F 27.5 °F 30.6 °F 94% 29.97 in 10.0 mi NE 4.6 mph - N/A   Overcast
12:55 AM 31.6 °F 23.7 °F 30.0 °F 94% 29.96 in 10.0 mi NNE 9.2 mph - N/A   Overcast
1:15 AM 31.6 °F 23.1 °F 30.2 °F 94% 29.95 in 10.0 mi NNE 10.4 mph - N/A   Overcast
1:35 AM 31.6 °F 24.4 °F 30.2 °F 94% 29.94 in 10.0 mi NNE 8.1 mph - N/A   Overcast
1:55 AM 31.6 °F 23.7 °F 30.2 °F 94% 29.93 in 10.0 mi NNE 9.2 mph - N/A   Overcast
2:15 AM 31.6 °F 23.7 °F 30.2 °F 94% 29.92 in 10.0 mi NNE 9.2 mph - N/A   Overcast
2:35 AM 31.6 °F 23.7 °F 30.2 °F 94% 29.91 in 10.0 mi North 9.2 mph - N/A   Overcast
2:55 AM 31.6 °F 23.1 °F 30.2 °F 94% 29.90 in 10.0 mi North 10.4 mph - N/A   Overcast
3:15 AM 31.6 °F 23.7 °F 30.4 °F 95% 29.90 in 5.0 mi NNE 9.2 mph - 0.01 in   Overcast
3:35 AM 31.6 °F 27.0 °F 30.6 °F 96% 29.88 in 5.0 mi NNE 4.6 mph - 0.01 in   Overcast
3:55 AM 31.6 °F 25.1 °F 30.6 °F 96% 29.86 in 5.0 mi NNE 6.9 mph - 0.01 in   Overcast
4:15 AM 31.6 °F 24.4 °F 30.6 °F 96% 29.85 in 4.0 mi North 8.1 mph - N/A   Overcast
4:35 AM 31.8 °F 24.6 °F 30.7 °F 96% 29.83 in 4.0 mi NNE 8.1 mph - N/A   Overcast
4:55 AM 31.8 °F 24.6 °F 30.9 °F 96% 29.83 in 4.0 mi NNE 8.1 mph - N/A   Overcast
5:15 AM 32.0 °F 26.4 °F 31.1 °F 96% 29.83 in 4.0 mi NNE 5.8 mph - N/A   Overcast
5:35 AM 32.0 °F 24.8 °F 31.1 °F 96% 29.81 in 2.0 mi NNE 8.1 mph - N/A   Overcast
5:55 AM 32.0 °F 25.6 °F 31.1 °F 96% 29.81 in 2.0 mi NNE 6.9 mph - N/A   Overcast
6:15 AM 32.0 °F 25.6 °F 31.1 °F 96% 29.79 in 2.5 mi NNE 6.9 mph - N/A   Overcast
6:35 AM 32.0 °F 25.6 °F 31.1 °F 96% 29.78 in 2.0 mi North 6.9 mph - 0.01 in   Overcast
6:55 AM 32.0 °F 25.6 °F 31.1 °F 96% 29.77 in 2.5 mi NNE 6.9 mph - 0.01 in   Overcast
7:15 AM 32.0 °F 24.8 °F 31.5 °F 98% 29.76 in 2.5 mi NNE 8.1 mph - N/A   Overcast
7:35 AM 32.0 °F 26.4 °F 31.5 °F 98% 29.76 in 1.5 mi NNE 5.8 mph - N/A   Overcast
7:55 AM 32.0 °F 27.5 °F 31.6 °F 99% 29.75 in 1.8 mi North 4.6 mph - N/A   Overcast
8:15 AM 32.4 °F 29.1 °F 32.0 °F 99% 29.75 in 2.0 mi North 3.5 mph - N/A   Overcast
8:35 AM 32.7 °F 29.6 °F 32.0 °F 97% 29.77 in 1.8 mi North 3.5 mph - N/A   Overcast
8:55 AM 33.1 °F - 32.2 °F 96% 29.76 in 2.0 mi Calm Calm - N/A   Overcast
9:15 AM 33.1 °F - 32.2 °F 96% 29.75 in 4.0 mi Calm Calm - N/A   Overcast
9:35 AM 33.6 °F - 32.7 °F 96% 29.76 in 7.0 mi Calm Calm - N/A   Overcast
9:55 AM 34.3 °F - 33.3 °F 96% 29.76 in 7.0 mi Calm Calm - N/A   Overcast
10:15 AM 35.1 °F 32.2 °F 34.0 °F 96% 29.78 in 10.0 mi SW 3.5 mph - N/A   Overcast
10:35 AM 35.6 °F - 34.7 °F 97% 29.79 in 7.0 mi Calm Calm - N/A   Overcast
10:55 AM 36.5 °F 33.9 °F 35.2 °F 95% 29.79 in 5.0 mi South 3.5 mph - N/A   Overcast
11:15 AM 36.9 °F - 35.6 °F 95% 29.79 in 3.0 mi Calm Calm - N/A   Overcast
11:35 AM 39.6 °F 33.5 °F 38.1 °F 95% 29.78 in 7.0 mi WSW 9.2 mph - N/A   Overcast
11:55 AM 44.2 °F 37.6 °F 39.6 °F 84% 29.78 in 10.0 mi West 13.8 mph 26.5 mph N/A   Mostly Cloudy
12:15 PM 46.0 °F 39.9 °F 37.9 °F 73% 29.77 in 10.0 mi WSW 13.8 mph 20.7 mph N/A   Mostly Cloudy
12:35 PM 45.1 °F 37.6 °F 35.2 °F 68% 29.77 in 10.0 mi West 18.4 mph 23.0 mph N/A   Overcast
12:55 PM 44.8 °F 39.9 °F 34.3 °F 67% 29.76 in 10.0 mi West 9.2 mph 23.0 mph N/A   Overcast
1:15 PM 42.8 °F 36.6 °F 34.2 °F 72% 29.77 in 10.0 mi West 11.5 mph 18.4 mph N/A   Overcast
1:35 PM 43.9 °F 37.9 °F 33.3 °F 66% 29.77 in 10.0 mi West 11.5 mph 23.0 mph N/A   Mostly Cloudy
1:55 PM 43.9 °F 36.5 °F 32.0 °F 63% 29.76 in 10.0 mi West 16.1 mph 26.5 mph N/A   Overcast
2:15 PM 44.4 °F 37.9 °F 31.8 °F 61% 29.77 in 10.0 mi WNW 13.8 mph 25.3 mph N/A   Mostly Cloudy
2:35 PM 38.5 °F 30.7 °F 32.7 °F 80% 29.80 in 7.0 mi WNW 12.7 mph 23.0 mph 0.01 in Rain Light Rain
2:55 PM 39.2 °F 32.0 °F 31.8 °F 75% 29.81 in 10.0 mi WNW 11.5 mph 24.2 mph 0.01 in   Mostly Cloudy
3:15 PM 37.4 °F 29.8 °F 30.6 °F 76% 29.83 in 10.0 mi WNW 11.5 mph 26.5 mph N/A   Mostly Cloudy
3:35 PM 36.0 °F 28.0 °F 30.7 °F 81% 29.85 in 10.0 mi WNW 11.5 mph 21.9 mph N/A   Overcast
3:55 PM 35.1 °F 27.9 °F 30.6 °F 84% 29.87 in 7.0 mi WNW 9.2 mph 19.6 mph N/A   Mostly Cloudy
4:15 PM 32.4 °F 23.5 °F 29.5 °F 89% 29.89 in 1.2 mi WNW 11.5 mph 20.7 mph N/A Snow Light Snow
4:35 PM 32.9 °F 24.7 °F 28.0 °F 82% 29.90 in 7.0 mi WNW 10.4 mph 17.3 mph N/A   Overcast
4:55 PM 32.9 °F 26.7 °F 27.3 °F 80% 29.91 in 4.0 mi WNW 6.9 mph 18.4 mph N/A   Haze
5:15 PM 31.3 °F 23.3 °F 28.2 °F 88% 29.93 in 1.0 mi West 9.2 mph 16.1 mph N/A Snow Light Snow
5:35 PM 31.5 °F 22.9 °F 25.0 °F 77% 29.96 in 10.0 mi WNW 10.4 mph 24.2 mph N/A   Overcast
5:55 PM 30.7 °F 22.0 °F 25.0 °F 79% 29.98 in 5.0 mi WNW 10.4 mph 21.9 mph N/A   Haze
6:15 PM 30.0 °F 21.1 °F 24.1 °F 79% 29.99 in 7.0 mi NW 10.4 mph 16.1 mph N/A   Overcast
6:35 PM 29.7 °F 21.3 °F 23.9 °F 79% 30.00 in 10.0 mi NW 9.2 mph - N/A   Overcast
6:55 PM 28.9 °F 18.6 °F 21.9 °F 75% 30.01 in 10.0 mi West 12.7 mph 25.3 mph N/A   Overcast
7:15 PM 28.8 °F 22.6 °F 21.6 °F 74% 30.03 in 10.0 mi WNW 5.8 mph 24.2 mph N/A   Overcast
7:35 PM 28.4 °F 19.1 °F 21.7 °F 76% 30.03 in 5.0 mi West 10.4 mph 20.7 mph N/A   Haze
7:55 PM 27.9 °F 15.9 °F 21.2 °F 76% 30.03 in 10.0 mi NW 16.1 mph 24.2 mph N/A   Overcast
8:15 PM 27.1 °F 17.5 °F 19.8 °F 74% 30.05 in 7.0 mi WNW 10.4 mph 25.3 mph N/A   Overcast
8:35 PM 26.6 °F 15.7 °F 20.1 °F 77% 30.06 in 10.0 mi NW 12.7 mph 18.4 mph N/A   Overcast
8:55 PM 26.1 °F 16.8 °F 19.8 °F 77% 30.07 in 7.0 mi West 9.2 mph 18.4 mph N/A   Overcast
9:15 PM 25.5 °F 14.3 °F 19.4 °F 78% 30.08 in 7.0 mi NW 12.7 mph 24.2 mph N/A   Overcast
9:35 PM 24.6 °F 14.4 °F 18.5 °F 78% 30.09 in 4.0 mi NNW 10.4 mph 20.7 mph N/A Snow Light Snow
9:55 PM 23.7 °F 13.3 °F 17.6 °F 77% 30.09 in 5.0 mi NW 10.4 mph 20.7 mph N/A Snow Light Snow
10:15 PM 23.4 °F 11.1 °F 16.7 °F 76% 30.10 in 7.0 mi NW 13.8 mph 20.7 mph N/A   Overcast
10:35 PM 23.0 °F 13.1 °F 16.5 °F 76% 30.11 in 7.0 mi NNW 9.2 mph - N/A Snow Light Snow
10:55 PM 22.8 °F 15.5 °F 16.5 °F 77% 30.12 in 7.0 mi WNW 5.8 mph - N/A Snow Light Snow
11:15 PM 22.6 °F 15.3 °F 16.3 °F 77% 30.12 in 7.0 mi WNW 5.8 mph - N/A Snow Light Snow
11:35 PM 22.1 °F 14.7 °F 16.9 °F 80% 30.13 in 4.0 mi NW 5.8 mph - N/A Snow Light Snow
11:55 PM 21.9 °F 15.7 °F 17.6 °F 83% 30.14 in 2.5 mi NW 4.6 mph - N/A Snow Light Snow